WB7UVH Weather Reports


Display with metric or nautical units.
time (UTC)temp
F
wind
direction
speed
MPH
gust
MPH
rain 1hr
in
rain 24hr
in
rain mn
in
humidity
%
barometer
mb
20260904234504 58 256 0.0 0.0 0.02 0.20 0.14 94 1018.9
20260904233004 57 254 0.0 0.0 0.03 0.20 0.14 94 1019.0
20260904231504 57 254 0.0 0.0 0.03 0.20 0.14 93 1019.0
20260904230004 57 254 0.0 0.0 0.02 0.19 0.13 93 1019.0
20260904224504 57 253 0.0 0.0 0.03 0.18 0.12 92 1019.1
20260904223004 58 253 0.0 0.0 0.04 0.17 0.11 91 1019.1
20260904221504 59 253 0.0 3.0 0.04 0.17 0.11 88 1019.1
20260904214503 63 98 0.0 1.0 0.02 0.16 0.09 80 1018.5
20260904211504 66 95 1.0 5.0 0.00 0.14 0.07 71 1017.6
20260904210004 68 43 0.0 5.0 0.00 0.14 0.07 66 1017.5
20260904203004 67 122 0.0 3.0 0.00 0.14 0.07 69 1017.4
20260904201504 66 178 0.0 9.0 0.00 0.14 0.07 71 1017.5
20260904200003 66 38 0.0 3.0 0.00 0.15 0.07 71 1017.7
20260904194504 65 66 0.0 0.0 0.00 0.17 0.07 74 1017.8
20260904193003 64 109 0.0 0.0 0.00 0.21 0.07 77 1017.9
20260904191504 64 84 1.0 3.0 0.00 0.21 0.07 75 1017.9
20260904190004 65 73 0.0 1.0 0.00 0.21 0.07 74 1018.0
20260904184503 63 86 0.0 5.0 0.00 0.21 0.07 78 1017.9
20260904183003 61 59 0.0 3.0 0.00 0.21 0.07 83 1017.9
20260904181504 62 52 0.0 5.0 0.00 0.21 0.07 82 1017.8
20260904180003 61 104 0.0 8.0 0.00 0.21 0.07 86 1017.8
20260904174504 60 45 0.0 1.0 0.00 0.21 0.07 90 1017.7
20260904173003 59 73 0.0 3.0 0.00 0.21 0.07 89 1017.7
20260904171503 57 82 0.0 6.0 0.00 0.21 0.07 92 1017.7
20260904170004 57 80 0.0 3.0 0.00 0.21 0.07 95 1017.7
20260904164503 56 59 0.0 5.0 0.00 0.21 0.07 96 1017.7
20260904163004 55 75 0.0 0.0 0.00 0.22 0.07 96 1017.7
20260904161504 54 93 0.0 2.0 0.00 0.23 0.07 96 1017.7
20260904160004 54 66 1.0 5.0 0.00 0.24 0.07 96 1017.7
20260904154504 54 60 0.0 1.0 0.00 0.25 0.07 97 1017.7
20260904153004 53 55 0.0 5.0 0.00 0.27 0.07 97 1017.5
20260904151504 53 45 0.0 1.0 0.00 0.27 0.07 97 1017.4
20260904150004 53 77 0.0 3.0 0.01 0.28 0.07 97 1017.2
20260904144504 53 355 0.0 0.0 0.01 0.28 0.07 97 1017.3
20260904143004 53 59 0.0 3.0 0.01 0.29 0.07 97 1017.2
20260904141503 53 48 0.0 1.0 0.01 0.29 0.07 97 1017.1
20260904140004 52 46 0.0 3.0 0.01 0.28 0.06 97 1016.9
20260904134504 52 67 0.0 3.0 0.02 0.28 0.06 97 1016.7
20260904133003 52 77 0.0 2.0 0.04 0.28 0.06 97 1016.6
20260904131503 52 117 1.0 6.0 0.04 0.28 0.06 97 1016.5
20260904130004 52 83 0.0 2.0 0.04 0.27 0.05 97 1016.4
20260904124503 52 72 0.0 1.0 0.03 0.26 0.04 97 1016.4
20260904123004 52 57 0.0 0.0 0.01 0.24 0.02 96 1016.4
20260904121503 52 109 0.0 1.0 0.01 0.24 0.02 96 1016.3
20260904120004 52 44 0.0 1.0 0.00 0.23 0.01 97 1016.2
20260904114504 52 65 0.0 0.0 0.00 0.23 0.01 97 1016.1
20260904113003 52 44 0.0 0.0 0.00 0.23 0.01 97 1016.0
20260904111504 52 46 0.0 0.0 0.00 0.23 0.01 97 1015.9
20260904104504 52 46 0.0 0.0 0.00 0.23 0.01 97 1015.7
20260904103004 52 47 0.0 1.0 0.00 0.23 0.01 97 1015.6
20260904101504 52 323 0.0 0.0 0.00 0.23 0.01 97 1015.5
20260904100005 52 323 0.0 0.0 0.00 0.23 0.01 97 1015.5
20260904094504 52 315 0.0 0.0 0.00 0.23 0.01 97 1015.4
20260904090004 52 307 0.0 0.0 0.00 0.25 0.01 96 1015.3
20260904084504 53 302 0.0 0.0 0.00 0.26 0.01 96 1015.3
20260904081503 53 296 0.0 0.0 0.01 0.27 0.01 96 1015.2
20260904074503 54 296 0.0 0.0 0.02 0.28 0.01 96 1015.3
20260904073004 54 296 0.0 0.0 0.01 0.27 0.00 96 1015.4
20260904071504 54 296 0.0 0.0 0.01 0.28 0.00 96 1015.3
20260904064504 54 281 0.0 0.0 0.00 0.27 0.27 96 1015.5
20260904063004 54 281 0.0 0.0 0.00 0.27 0.27 96 1015.4
20260904061503 54 281 0.0 0.0 0.00 0.27 0.27 96 1015.3
20260904060004 54 281 0.0 0.0 0.00 0.27 0.27 96 1015.3
20260904051503 54 281 0.0 0.0 0.00 0.27 0.27 96 1015.2
20260904050004 54 281 0.0 0.0 0.00 0.27 0.27 96 1015.2
20260904044504 54 281 0.0 0.0 0.00 0.27 0.27 96 1015.2
20260904043003 54 281 0.0 0.0 0.00 0.27 0.27 96 1015.2
20260904034505 54 281 0.0 0.0 0.00 0.29 0.27 95 1015.1
20260904033004 54 281 0.0 0.0 0.00 0.29 0.27 95 1014.9
20260904031504 54 281 0.0 0.0 0.00 0.29 0.27 95 1014.8
20260904030005 55 281 0.0 0.0 0.00 0.29 0.27 95 1014.7
20260904024505 56 281 0.0 0.0 0.00 0.29 0.27 94 1014.7
20260904023005 56 281 0.0 0.0 0.00 0.29 0.27 94 1014.7
20260904021505 57 281 0.0 0.0 0.00 0.29 0.27 94 1014.7
20260904020004 57 281 0.0 0.0 0.00 0.29 0.27 94 1014.8
20260904014505 57 281 0.0 0.0 0.00 0.29 0.27 95 1014.8
20260904013004 57 281 0.0 0.0 0.00 0.30 0.27 94 1014.8
20260904010005 58 281 0.0 0.0 0.05 0.32 0.27 94 1015.0
20260904003005 58 293 0.0 0.0 0.05 0.41 0.27 92 1014.9
20260904001505 60 293 0.0 12.0 0.05 0.51 0.27 90 1015.0
20260904000005 60 252 0.0 0.0 0.00 0.48 0.22 87 1014.8